{"data":{"norad_id":28378,"intl_designator":"2004-027A","name":"ANIK F2","alt_names":[],"object_type":"PAYLOAD","status":"ACTIVE","operator":null,"country":"CA","launch_date":"2004-07-18","launch_site_code":"FRGUI","launch_vehicle":null,"mission":null,"orbit_class":"UNKNOWN","rcs_meters":36.6346,"size_class":null,"mass_kg":null,"dimensions":null,"purposes":["comms"],"wikipedia_slug":null,"has_3d_model":false,"image_url":null,"decayed_at":null,"tle_current":{"epoch":"2026-05-25T03:12:55.852128Z","epoch_age_seconds":70386,"freshness":"FRESH","line1":"1 28378U 04027A   26145.13397977 -.00000051  00000+0  00000+0 0  9990","line2":"2 28378   3.2296  79.7461 0004449 351.3346 108.7417  1.00271812 41030","mean_motion":1.00271812,"eccentricity":0.0004449,"inclination_deg":3.2296,"raan_deg":79.7461,"arg_perigee_deg":351.3346,"mean_anomaly_deg":108.7417,"bstar":0,"rev_number":4103,"period_min":1436.0965173343,"perigee_km":35767.82830623,"apogee_km":35805.346477994,"semimajor_km":42164.724392112,"source":"CELESTRAK","updated_at":"2026-05-25T13:38:13.818181Z"}}}